GFSFLT1_con_3kmhel_150.txt.gz
Helicity
202 198 176 133 94 69 57 45 43 36 -6 -24 -61 -103 -106 -50 -4 -33 33 102 160 195 171 185 222 206 316 232 245 246 249 262
153 142 106 80 68 61 53 50 69 51 49 5 -43 -82 -77 -67 -71 -48 67 68 122 158 188 172 223 230 177 194 201 107 235 292
199 144 87 58 49 50 50 46 54 22 10 15 -5 -4 -53 -50 13 35 -43 41 118 173 220 249 246 211 250 163 250 245 262 330
215 145 96 100 107 116 87 53 33 7 10 -11 -12 -37 -27 -59 -4 1 92 47 82 175 216 269 298 263 204 175 228 245 324 362
142 121 138 126 100 69 53 45 23 -9 -30 -59 -35 -75 -59 -50 -49 -37 -11 86 99 149 251 241 268 282 264 208 180 186 218 261
109 143 117 105 93 68 54 47 27 17 -6 -47 -56 -57 -31 -12 -28 -18 1 14 111 196 280 318 323 326 287 250 160 108 191 219
94 93 87 92 81 76 72 76 51 35 8 -11 -33 -44 -21 -19 -34 -56 -44 49 82 159 199 224 246 298 342 310 183 113 162 121
106 112 101 82 76 68 53 45 40 41 28 7 -18 -33 -49 -74 -106 -94 -34 1 71 125 190 215 195 206 281 276 318 190 180 182
86 89 75 59 50 42 46 38 32 33 38 29 -3 -28 -17 -45 -109 -106 -64 -35 22 86 95 103 90 64 132 160 227 261 189 213
88 79 64 59 51 20 27 31 27 25 15 13 13 -1 -17 -36 -76 -96 -84 -70 -38 26 60 74 52 3 110 131 122 201 202 227
77 46 41 32 26 19 28 18 20 25 27 19 9 17 3 -18 -66 -80 -79 -71 -37 -27 9 45 36 14 35 126 120 167 162 171
45 45 46 31 32 38 42 32 28 38 29 24 13 23 15 18 -53 -101 -83 -61 -33 -15 -1 -19 38 47 37 97 162 166 196 112
41 37 34 48 58 63 54 44 40 45 28 23 21 16 18 31 26 -46 -81 -83 -82 -42 -10 18 26 85 130 99 176 193 167 85
36 37 52 57 58 57 56 57 59 53 45 36 33 21 9 18 28 22 -16 -39 -68 -44 -17 -8 25 60 114 244 205 253 262 88
31 48 53 53 49 58 61 48 46 48 39 38 33 33 13 7 17 34 19 -14 -54 -58 -63 -49 10 85 81 227 376 381 282 237
44 53 50 42 53 52 40 38 50 44 34 33 36 42 15 13 17 21 22 15 6 -13 3 7 9 70 100 109 330 470 501 362
75 63 55 56 43 45 45 50 53 40 42 47 39 48 45 36 34 28 20 24 10 1 30 44 66 28 121 133 77 356 504 533
79 64 60 44 40 35 39 39 40 49 53 59 60 53 60 68 49 52 64 52 36 21 22 29 40 72 83 54 117 55 236 501
88 77 51 32 36 49 47 63 71 59 55 55 59 68 73 71 77 67 62 56 50 47 52 43 41 52 77 52 41 13 39 159

GFSFLT1_con_3kmhel_153.txt.gz
Helicity
199 193 186 178 165 130 100 74 82 61 38 27 32 39 13 -7 -31 -25 -7 34 101 124 144 173 192 213 228 187 129 204 263 260
209 202 198 177 154 131 111 85 70 56 44 28 3 4 -18 3 2 26 25 35 47 83 136 151 173 205 260 210 253 140 364 354
246 221 196 161 129 107 89 85 76 66 41 22 12 10 -5 -2 31 52 56 58 66 104 125 143 151 193 281 283 210 248 219 278
231 190 142 114 102 88 68 71 65 65 67 35 13 -31 -45 -38 -10 1 53 92 117 119 111 154 208 217 247 268 245 287 207 229
157 150 127 107 92 51 45 56 66 59 53 31 11 -40 -53 -76 -90 -84 -72 -12 71 119 126 134 168 221 252 357 427 293 210 181
161 137 95 86 65 54 52 58 64 58 39 17 -7 -14 -56 -81 -95 -75 -75 -47 0 82 143 146 112 159 204 263 358 428 290 199
121 104 91 96 78 82 81 81 65 56 40 28 12 0 -9 -30 -55 -79 -54 -30 0 68 110 123 109 95 174 216 228 317 320 341
133 153 157 142 135 109 95 87 74 58 44 28 14 5 -5 -18 -30 -50 -44 -36 -24 24 60 83 110 100 121 139 92 117 227 288
141 142 127 121 111 79 72 65 62 54 43 41 25 16 0 -10 -9 -27 -57 -38 -27 -41 8 45 86 128 80 98 103 87 112 242
117 120 110 85 64 62 51 42 40 43 45 43 36 32 30 17 0 -22 -22 -23 -25 -68 -51 31 56 97 115 96 62 86 91 115
111 99 74 64 61 44 36 35 42 42 39 41 39 37 25 9 -1 3 -4 -1 -14 -60 -69 -48 6 46 102 85 59 72 78 76
77 63 50 44 43 52 56 57 54 57 53 49 48 36 28 14 -1 -2 -1 -1 12 -48 -76 -71 -34 12 90 87 62 100 117 72
57 50 49 54 59 67 65 57 57 51 39 43 49 39 30 25 20 10 -5 -2 7 4 -55 -79 -95 -66 27 104 49 42 163 193
47 40 50 62 72 71 65 48 59 56 46 43 51 51 38 27 18 12 8 9 6 11 -2 -28 -56 -51 -26 26 39 36 129 212
51 56 56 59 58 65 64 64 68 58 40 38 54 75 49 29 13 7 12 9 1 6 10 0 -38 -59 -85 -17 12 51 66 189
66 73 74 81 82 86 91 82 61 44 45 64 83 91 62 54 40 24 14 13 -3 -7 0 19 35 6 -55 -37 1 36 86 93
79 79 83 85 86 97 84 70 60 54 65 84 91 101 86 68 52 40 27 26 12 12 13 31 60 56 84 11 -26 -1 28 100
88 90 85 78 80 69 65 64 60 47 50 71 86 109 100 83 59 56 55 42 26 23 29 30 38 89 107 58 22 -34 -18 43
94 86 77 77 65 63 64 61 43 40 53 61 62 79 81 79 71 74 71 50 48 34 40 38 40 81 129 103 24 -10 -26 -9

GFSFLT1_con_3kmhel_156.txt.gz
Helicity
134 144 150 142 145 140 126 116 116 97 62 47 34 13 -8 -26 -30 -24 -11 7 45 71 96 124 129 123 149 193 265 279 257 214
157 166 150 143 151 143 131 121 117 104 83 75 61 64 48 34 25 15 2 11 23 18 62 81 114 156 165 165 186 288 235 252
185 169 163 176 155 141 119 115 99 84 65 57 53 39 24 25 34 24 19 17 33 45 67 74 102 129 182 229 282 253 232 233
218 214 196 177 167 136 113 95 77 69 70 56 57 48 54 66 57 32 5 -20 -12 19 48 59 71 107 136 184 223 272 279 259
229 208 193 175 137 105 100 87 88 85 83 70 71 58 52 40 26 2 -21 -28 -36 -23 8 43 61 72 110 189 213 263 307 212
191 183 170 147 120 105 91 81 80 81 78 66 49 42 27 22 20 16 -3 -37 -53 -42 -32 -12 42 73 111 134 183 184 173 201
163 133 130 130 105 85 75 76 83 84 73 68 58 51 40 26 26 8 8 -7 -23 -12 -18 -19 -0 25 75 110 150 148 105 119
154 163 158 121 104 94 89 97 94 92 78 63 52 47 35 20 20 14 25 40 38 20 -2 -1 3 26 54 63 89 126 133 110
180 154 128 117 107 109 98 89 92 91 71 60 55 46 26 16 19 23 25 42 47 39 15 -7 3 5 16 58 70 102 125 109
139 131 123 124 127 96 92 85 83 73 61 52 55 51 53 44 37 38 32 30 39 43 35 18 5 9 -18 12 59 120 128 127
116 126 126 109 100 87 77 72 67 64 61 60 63 58 48 47 46 53 47 34 38 43 53 37 21 12 -27 -30 21 89 140 139
117 102 100 90 78 71 65 68 65 63 53 52 62 57 54 49 44 42 36 31 31 26 37 42 36 19 -19 -40 -5 46 123 136
99 98 83 76 69 67 65 65 66 62 54 57 74 70 71 71 69 63 38 31 24 19 18 37 44 36 1 -46 -30 12 66 113
89 79 70 67 68 67 68 66 65 59 67 75 84 108 109 102 86 68 51 43 40 35 26 28 39 43 31 -11 -52 -15 11 72
84 70 60 71 71 70 67 63 64 74 88 99 109 127 107 87 71 59 58 52 54 40 26 36 35 48 36 27 -39 -40 -0 36
85 66 67 65 68 59 56 58 71 83 91 110 106 96 95 88 76 71 66 59 50 45 37 40 61 56 39 35 15 -37 -45 29
79 71 70 81 78 70 69 81 81 90 97 83 79 90 75 68 73 72 67 69 51 49 50 43 61 57 100 61 39 5 -12 -17
91 91 85 75 78 73 79 83 92 78 63 69 65 52 49 58 66 74 75 71 62 56 49 55 70 86 116 84 48 42 53 31
104 93 75 73 74 70 81 84 65 60 70 49 26 24 17 21 41 58 57 53 56 51 51 58 51 76 156 127 48 44 40 73

GFSFLT1_con_3kmhel_159.txt.gz
Helicity
151 143 141 150 153 143 142 135 125 97 81 77 65 58 60 50 40 33 21 15 33 11 5 28 47 59 65 82 110 123 152 107
126 145 153 169 168 174 173 154 137 118 106 105 101 93 73 58 48 44 34 24 16 -2 12 15 12 19 48 75 50 54 88 184
147 160 185 205 186 173 148 144 128 116 105 96 87 73 62 64 69 59 66 58 45 23 10 3 6 0 3 16 57 82 104 123
179 196 209 185 172 146 143 134 121 125 131 102 91 72 77 84 92 90 93 87 76 62 40 1 -12 -17 -10 16 34 56 56 74
235 203 202 180 146 140 143 124 126 120 121 115 119 110 104 91 81 78 68 69 66 66 63 35 -4 -27 -28 -5 23 51 88 97
231 219 206 180 164 156 130 123 127 129 124 126 109 103 89 81 80 85 85 72 64 63 55 36 20 -1 -19 -29 -10 43 81 112
236 213 186 185 162 138 126 125 123 121 107 94 94 97 89 81 84 78 74 62 61 69 68 51 27 20 -8 -24 -30 8 70 94
184 180 185 173 153 136 115 119 109 103 88 86 90 83 77 69 76 68 71 67 65 69 63 57 43 28 9 -13 -28 -14 57 92
199 177 163 146 140 127 122 120 111 95 87 86 83 76 61 49 46 39 35 39 42 58 59 58 53 45 33 15 -5 -15 49 73
181 178 168 152 131 126 126 113 106 102 94 85 77 59 49 44 36 29 29 34 46 63 69 69 63 52 38 23 2 -13 49 49
146 135 122 121 129 116 103 99 99 96 83 70 62 49 48 44 41 49 60 64 76 81 85 77 71 58 42 29 4 3 52 37
94 104 127 134 130 116 103 94 99 88 66 52 60 57 56 53 61 79 83 85 101 102 94 83 80 69 50 38 17 8 23 42
96 109 114 125 119 110 101 94 91 80 52 46 60 68 68 78 100 110 104 112 110 104 103 100 98 88 70 55 30 6 -2 16
134 116 120 108 92 95 96 90 81 58 53 62 71 82 92 102 106 119 120 121 121 115 106 99 96 90 86 65 30 14 -5 -6
102 96 100 88 91 88 86 56 44 38 50 62 58 93 85 92 92 99 104 106 107 86 74 78 83 70 80 67 44 33 10 -8
115 108 89 85 85 69 61 43 49 35 34 68 68 80 72 80 79 74 81 79 80 79 63 63 83 61 66 65 44 30 38 26
125 96 78 88 75 54 54 55 46 46 62 58 67 75 70 58 60 63 69 66 63 58 56 53 87 58 118 90 49 22 40 58
110 92 96 86 76 63 70 59 52 58 59 71 76 48 53 58 39 27 36 48 53 50 40 49 54 78 136 117 68 34 44 64
119 120 103 87 81 74 58 57 52 61 81 62 49 57 57 29 14 9 0 2 7 4 12 23 19 49 112 123 81 40 50 74